Time,TemperatureF,DewpointF,PressureIn,WindDirection,WindDirectionDegrees,WindSpeedMPH,WindSpeedGustMPH,Humidity,HourlyPrecipIn,Conditions,Clouds,dailyrainin,SoftwareType,DateUTC
2013-03-17 15:56:00,39.9,34.6,29.94,ENE,68,2.7,6.3,81,0.00,,,0.00,WUHU216TE923,2013-03-17 19:56:00,
2013-03-17 16:01:00,39.9,34.6,29.94,ENE,68,2.7,6.3,81,0.00,,,0.00,WUHU216TE923,2013-03-17 20:01:00,
2013-03-17 16:06:00,39.9,34.6,29.94,NNE,23,4.1,8.3,81,0.00,,,0.00,WUHU216TE923,2013-03-17 20:06:00,
2013-03-17 16:11:00,39.9,34.6,29.94,NNE,23,4.1,8.3,81,0.00,,,0.00,WUHU216TE923,2013-03-17 20:11:00,
2013-03-17 16:16:00,39.9,34.6,29.94,NE,45,6.8,12.0,81,0.00,,,0.00,WUHU216TE923,2013-03-17 20:16:00,
2013-03-17 16:21:00,40.1,35.0,29.90,NNE,23,6.7,12.0,82,0.03,,,0.03,WUHU216TE923,2013-03-17 20:21:00,
2013-03-17 16:26:00,40.1,35.0,29.90,NNE,23,7.2,7.2,82,0.03,,,0.03,WUHU216TE923,2013-03-17 20:26:00,
2013-03-17 16:31:00,40.1,35.0,29.90,NNE,23,7.4,8.5,82,0.03,,,0.03,WUHU216TE923,2013-03-17 20:31:00,
2013-03-17 16:36:00,40.1,35.0,29.90,NE,45,8.4,10.8,82,0.06,,,0.06,WUHU216TE923,2013-03-17 20:36:00,
2013-03-17 16:42:00,40.1,35.3,29.90,ENE,68,8.2,10.8,83,0.08,,,0.08,WUHU216TE923,2013-03-17 20:42:00,
2013-03-17 16:47:00,40.3,35.5,29.90,NNE,23,6.7,8.2,83,0.08,,,0.08,WUHU216TE923,2013-03-17 20:47:00,
2013-03-17 16:52:00,40.3,35.5,29.90,NNE,23,6.7,8.2,83,0.08,,,0.08,WUHU216TE923,2013-03-17 20:52:00,
2013-03-17 16:57:00,40.5,35.4,29.90,North,0,6.5,8.8,82,0.08,,,0.08,WUHU216TE923,2013-03-17 20:57:00,
2013-03-17 17:02:00,40.3,35.5,29.90,NE,45,6.0,8.1,83,0.11,,,0.11,WUHU216TE923,2013-03-17 21:02:00,
2013-03-17 17:07:00,40.5,35.7,29.90,NNE,23,5.9,8.1,83,0.08,,,0.11,WUHU216TE923,2013-03-17 21:07:00,
2013-03-17 17:12:00,40.5,35.7,29.90,NNE,23,5.7,7.0,83,0.08,,,0.11,WUHU216TE923,2013-03-17 21:12:00,
2013-03-17 17:17:00,40.5,35.7,29.90,ENE,68,5.3,7.8,83,0.08,,,0.11,WUHU216TE923,2013-03-17 21:17:00,
2013-03-17 17:22:00,40.3,35.2,29.90,NNE,23,6.1,12.0,82,0.11,,,0.14,WUHU216TE923,2013-03-17 21:22:00,
2013-03-17 17:27:00,40.3,35.5,29.90,NNE,23,7.6,12.0,83,0.08,,,0.14,WUHU216TE923,2013-03-17 21:27:00,
2013-03-17 17:32:00,40.5,35.7,29.90,NNE,23,7.7,7.8,83,0.09,,,0.17,WUHU216TE923,2013-03-17 21:32:00,
2013-03-17 18:15:00,40.5,35.7,29.87,NNE,23,7.2,7.4,83,0.03,,,0.17,WUHU216TE923,2013-03-17 22:15:00,
2013-03-17 18:20:00,40.5,35.7,29.87,NNE,23,7.2,7.4,83,0.03,,,0.17,WUHU216TE923,2013-03-17 22:20:00,
2013-03-17 18:25:00,40.1,35.3,29.87,NNE,23,6.3,11.2,83,0.08,,,0.25,WUHU216TE923,2013-03-17 22:25:00,
2013-03-17 18:30:00,40.1,35.3,29.87,NNE,23,6.3,11.2,83,0.08,,,0.25,WUHU216TE923,2013-03-17 22:30:00,
2013-03-17 18:35:00,40.1,35.3,29.88,NNE,23,6.5,8.2,83,0.00,,,0.25,WUHU216TE923,2013-03-17 22:35:00,
2013-03-17 18:40:00,40.1,35.3,29.88,NNE,23,6.5,8.2,83,0.00,,,0.25,WUHU216TE923,2013-03-17 22:40:00,
2013-03-17 18:45:00,40.1,35.3,29.88,NE,45,5.9,10.4,83,0.00,,,0.25,WUHU216TE923,2013-03-17 22:45:00,
2013-03-17 18:50:00,40.1,35.3,29.88,NE,45,5.9,10.4,83,0.00,,,0.25,WUHU216TE923,2013-03-17 22:50:00,
2013-03-17 18:55:00,40.5,35.7,29.88,NNE,23,4.1,6.8,83,0.03,,,0.28,WUHU216TE923,2013-03-17 22:55:00,
2013-03-17 19:00:00,40.5,35.7,29.88,NNE,23,4.1,6.8,83,0.03,,,0.28,WUHU216TE923,2013-03-17 23:00:00,
2013-03-17 19:05:00,40.5,35.7,29.88,NNE,23,4.9,6.8,83,0.03,,,0.28,WUHU216TE923,2013-03-17 23:05:00,
2013-03-17 19:10:00,40.5,35.7,29.88,NNE,23,5.6,5.7,83,0.03,,,0.28,WUHU216TE923,2013-03-17 23:10:00,
2013-03-17 19:15:00,40.1,35.3,29.88,NNE,23,5.5,5.7,83,0.05,,,0.30,WUHU216TE923,2013-03-17 23:15:00,
2013-03-17 19:20:00,40.1,35.3,29.88,NNE,23,5.2,6.4,83,0.05,,,0.30,WUHU216TE923,2013-03-17 23:20:00,
2013-03-17 19:25:00,40.3,35.5,29.88,NNE,23,4.8,6.4,83,0.05,,,0.30,WUHU216TE923,2013-03-17 23:25:00,
2013-03-17 19:30:00,40.3,35.8,29.88,NE,45,4.0,6.4,84,0.08,,,0.33,WUHU216TE923,2013-03-17 23:30:00,
2013-03-17 19:35:00,40.5,35.7,29.88,NE,45,3.8,4.9,83,0.08,,,0.33,WUHU216TE923,2013-03-17 23:35:00,
2013-03-17 19:40:00,40.5,35.7,29.88,NNE,23,3.8,5.8,83,0.08,,,0.33,WUHU216TE923,2013-03-17 23:40:00,
2013-03-17 19:45:00,40.5,35.7,29.88,NNE,23,4.0,6.3,83,0.08,,,0.33,WUHU216TE923,2013-03-17 23:45:00,
2013-03-17 19:50:00,40.5,35.7,29.88,NNE,23,4.5,6.3,83,0.05,,,0.33,WUHU216TE923,2013-03-17 23:50:00,
2013-03-17 19:55:00,40.5,35.7,29.88,NNE,23,4.5,4.9,83,0.05,,,0.33,WUHU216TE923,2013-03-17 23:55:00,
2013-03-17 20:00:00,40.5,35.7,29.88,NNE,23,4.1,5.8,83,0.05,,,0.33,WUHU216TE923,2013-03-18 00:00:00,
2013-03-17 20:05:00,40.5,35.7,29.88,NNE,23,4.2,5.8,83,0.06,,,0.36,WUHU216TE923,2013-03-18 00:05:00,
2013-03-17 20:10:00,40.3,35.5,29.88,NNE,23,4.5,4.9,83,0.06,,,0.36,WUHU216TE923,2013-03-18 00:10:00,
2013-03-17 20:15:00,40.5,35.7,29.88,NNE,23,4.3,4.6,83,0.06,,,0.36,WUHU216TE923,2013-03-18 00:15:00,
2013-03-17 20:20:00,40.3,35.5,29.87,NNE,23,4.8,7.5,83,0.06,,,0.36,WUHU216TE923,2013-03-18 00:20:00,
2013-03-17 20:25:00,40.3,35.5,29.87,NNE,23,5.1,7.5,83,0.06,,,0.39,WUHU216TE923,2013-03-18 00:25:00,
2013-03-17 20:30:00,40.5,35.7,29.87,ENE,68,5.3,5.8,83,0.06,,,0.39,WUHU216TE923,2013-03-18 00:30:00,
2013-03-17 20:35:00,40.5,35.7,29.87,NNE,23,6.0,8.9,83,0.06,,,0.39,WUHU216TE923,2013-03-18 00:35:00,
2013-03-17 20:40:00,40.1,35.3,29.86,NE,45,7.4,8.9,83,0.06,,,0.39,WUHU216TE923,2013-03-18 00:40:00,
2013-03-17 20:45:00,40.1,35.6,29.86,NNE,23,7.5,10.9,84,0.06,,,0.39,WUHU216TE923,2013-03-18 00:45:00,
2013-03-17 20:50:00,40.1,35.6,29.86,NNE,23,6.6,10.9,84,0.06,,,0.39,WUHU216TE923,2013-03-18 00:50:00,
2013-03-17 20:55:00,39.9,35.2,29.85,North,0,6.8,8.7,83,0.05,,,0.41,WUHU216TE923,2013-03-18 00:55:00,
2013-03-17 21:00:00,39.9,35.2,29.85,North,0,6.8,8.4,83,0.05,,,0.41,WUHU216TE923,2013-03-18 01:00:00,
2013-03-17 21:05:00,39.9,35.2,29.85,NNE,23,7.6,12.1,83,0.05,,,0.41,WUHU216TE923,2013-03-18 01:05:00,
2013-03-17 21:10:00,39.9,35.2,29.85,NNE,23,7.6,12.1,83,0.05,,,0.41,WUHU216TE923,2013-03-18 01:10:00,
2013-03-17 21:15:00,39.9,35.4,29.85,NNE,23,7.2,7.7,84,0.02,,,0.41,WUHU216TE923,2013-03-18 01:15:00,
2013-03-17 21:20:00,39.9,35.4,29.85,NNE,23,7.2,7.7,84,0.02,,,0.41,WUHU216TE923,2013-03-18 01:20:00,
2013-03-17 21:25:00,39.7,35.5,29.85,NNE,23,6.8,9.6,85,0.02,,,0.41,WUHU216TE923,2013-03-18 01:25:00,
2013-03-17 21:30:00,39.7,35.5,29.85,NNE,23,6.8,9.6,85,0.02,,,0.41,WUHU216TE923,2013-03-18 01:30:00,
2013-03-17 21:35:00,39.7,35.5,29.85,NNE,23,8.1,10.0,85,0.05,,,0.44,WUHU216TE923,2013-03-18 01:35:00,
2013-03-17 21:40:00,39.7,35.5,29.85,NNE,23,8.1,10.0,85,0.05,,,0.44,WUHU216TE923,2013-03-18 01:40:00,
2013-03-17 21:45:00,39.7,35.2,29.85,NNE,23,5.7,9.8,84,0.03,,,0.44,WUHU216TE923,2013-03-18 01:45:00,
2013-03-17 21:50:00,39.7,35.2,29.85,NNE,23,5.7,9.8,84,0.03,,,0.44,WUHU216TE923,2013-03-18 01:50:00,
2013-03-17 21:55:00,39.9,35.7,29.85,NNE,23,5.8,6.0,85,0.03,,,0.44,WUHU216TE923,2013-03-18 01:55:00,
2013-03-17 22:00:00,39.9,35.7,29.85,NNE,23,5.8,6.0,85,0.03,,,0.44,WUHU216TE923,2013-03-18 02:00:00,
2013-03-17 22:05:00,39.9,35.7,29.85,NNE,23,4.1,6.1,85,0.03,,,0.44,WUHU216TE923,2013-03-18 02:05:00,
2013-03-17 22:10:00,39.9,35.7,29.85,NNE,23,4.1,6.1,85,0.03,,,0.44,WUHU216TE923,2013-03-18 02:10:00,
2013-03-17 22:15:00,39.9,35.7,29.85,NNE,23,4.5,8.1,85,0.03,,,0.44,WUHU216TE923,2013-03-18 02:15:00,
2013-03-17 22:20:00,39.9,35.7,29.85,NNE,23,4.5,8.1,85,0.03,,,0.44,WUHU216TE923,2013-03-18 02:20:00,
2013-03-17 22:25:00,39.9,35.7,29.85,NNE,23,3.5,4.5,85,0.03,,,0.44,WUHU216TE923,2013-03-18 02:25:00,
2013-03-17 22:30:00,39.9,35.4,29.85,NE,45,4.3,7.1,84,0.00,,,0.44,WUHU216TE923,2013-03-18 02:30:00,
2013-03-17 22:35:00,39.9,35.4,29.85,East,90,5.4,7.4,84,0.00,,,0.44,WUHU216TE923,2013-03-18 02:35:00,
2013-03-17 22:40:00,39.9,35.7,29.85,NNE,23,5.4,7.4,85,0.00,,,0.44,WUHU216TE923,2013-03-18 02:40:00,
2013-03-17 22:45:00,39.9,35.4,29.85,NE,45,5.3,5.4,84,0.00,,,0.44,WUHU216TE923,2013-03-18 02:45:00,
2013-03-17 22:50:00,40.1,35.6,29.85,NNW,338,5.5,5.5,84,0.00,,,0.44,WUHU216TE923,2013-03-18 02:50:00,
2013-03-17 22:55:00,39.9,35.4,29.85,ENE,68,5.4,5.5,84,0.00,,,0.44,WUHU216TE923,2013-03-18 02:55:00,
2013-03-17 23:00:00,39.9,35.4,29.84,ENE,68,6.2,7.7,84,0.00,,,0.44,WUHU216TE923,2013-03-18 03:00:00,
2013-03-17 23:05:00,39.9,35.4,29.84,NNE,23,6.4,11.4,84,0.00,,,0.44,WUHU216TE923,2013-03-18 03:05:00,
2013-03-17 23:10:00,39.9,35.4,29.84,NNE,23,6.6,11.4,84,0.00,,,0.44,WUHU216TE923,2013-03-18 03:10:00,
2013-03-17 23:15:00,39.9,35.4,29.84,NNE,23,6.9,8.1,84,0.00,,,0.44,WUHU216TE923,2013-03-18 03:15:00,
2013-03-17 23:20:00,39.9,35.7,29.83,NNE,23,5.1,7.3,85,0.00,,,0.44,WUHU216TE923,2013-03-18 03:20:00,
2013-03-17 23:25:00,39.9,35.7,29.83,NE,45,5.0,8.1,85,0.00,,,0.44,WUHU216TE923,2013-03-18 03:25:00,
2013-03-17 23:30:00,39.9,35.7,29.83,NNE,23,6.3,8.1,85,0.00,,,0.44,WUHU216TE923,2013-03-18 03:30:00,
2013-03-17 23:35:00,39.9,35.7,29.83,NNE,23,6.4,10.3,85,0.00,,,0.44,WUHU216TE923,2013-03-18 03:35:00,
2013-03-17 23:40:00,39.7,35.5,29.82,NNE,23,5.8,10.3,85,0.00,,,0.44,WUHU216TE923,2013-03-18 03:40:00,
2013-03-17 23:45:00,39.7,35.5,29.82,NNE,23,6.2,6.2,85,0.00,,,0.44,WUHU216TE923,2013-03-18 03:45:00,
2013-03-17 23:50:00,39.7,35.5,29.82,NE,45,6.9,6.9,85,0.00,,,0.44,WUHU216TE923,2013-03-18 03:50:00,
2013-03-17 23:55:00,39.7,35.5,29.82,NNE,23,7.4,8.5,85,0.00,,,0.44,WUHU216TE923,2013-03-18 03:55:00,